Date String (YYYY-MM-DD hh:mm:ss) UTC,Instrument flags,Ambient pressure (hPa),Sample flow (lpm),Bypass flow (lpm),Sample temperature (°C),Ambient temperature (°C),ASC tube jacket temperature (°C),LED temperature (°C),Box temperature (°C),Sample RH (%),Span deviation,Mass concentration (μg/m³),Mass concentration (μg/m³),Mass concentration (μg/m³)
DateTimeUTC,F1_M11,P_M11,Q1_M11,Q2_M11,T1_M11,T2_M11,T3_M11,T4_M11,T5_M11,U1_M11,ZSPAN_M11,X0_M11,X2_M11,X1_M11
2021-12-28 03:00:00,,0806.2,5.01,0.00,23.2,22.3,00.0,32.2,24.9,09.4,0000.0,0012.26,0003.89,0002.65
2021-12-28 03:01:00,,0806.2,4.99,0.00,23.2,22.3,00.0,32.2,24.9,09.4,0000.0,0011.43,0003.89,0002.66
2021-12-28 03:02:00,,0806.1,5.00,0.00,23.2,22.3,00.0,32.2,24.8,09.4,0000.0,0011.00,0003.88,0002.67
2021-12-28 03:03:00,,0806.2,5.00,0.00,23.1,22.3,00.0,32.2,24.8,09.4,0000.0,0010.74,0003.93,0002.70
2021-12-28 03:04:00,,0806.2,5.01,0.00,23.1,22.3,00.0,32.2,24.8,09.4,0000.0,0010.75,0003.93,0002.73
2021-12-28 03:05:00,,0806.2,4.99,0.00,23.1,22.3,00.0,32.2,24.9,09.4,0000.0,0011.10,0003.87,0002.71
2021-12-28 03:06:00,,0806.2,5.00,0.00,23.1,22.3,00.0,32.1,24.9,09.4,0000.0,0011.01,0003.79,0002.64
2021-12-28 03:07:00,,0806.2,5.00,0.00,23.1,22.3,00.0,32.1,24.9,09.6,0000.0,0010.43,0003.70,0002.59
2021-12-28 03:08:00,,0806.3,4.99,0.00,23.1,22.2,00.0,32.1,24.8,09.6,0000.0,0010.82,0003.73,0002.60
2021-12-28 03:09:00,,0806.3,5.00,0.00,23.1,22.2,00.0,32.1,24.7,09.6,0000.0,0011.60,0003.77,0002.61
2021-12-28 03:10:00,,0806.2,5.01,0.00,23.0,22.1,00.0,32.1,24.6,09.6,0000.0,0012.94,0003.78,0002.62
2021-12-28 03:11:00,,0806.2,5.01,0.00,23.0,22.1,00.0,32.1,24.6,09.5,0000.0,0012.44,0003.75,0002.62
2021-12-28 03:12:00,,0806.2,5.00,0.00,23.0,22.1,00.0,32.1,24.7,09.5,0000.0,0012.40,0003.74,0002.64
2021-12-28 03:13:00,,0806.2,5.00,0.00,23.0,22.1,00.0,32.1,24.7,09.7,0000.0,0013.41,0003.79,0002.68
2021-12-28 03:14:00,,0806.2,5.01,0.00,23.0,22.1,00.0,32.0,24.7,09.7,0000.0,0013.52,0003.78,0002.75
2021-12-28 03:15:00,,0806.2,5.00,0.00,23.0,22.1,00.0,32.0,24.7,09.7,0000.0,0013.57,0003.87,0002.81
2021-12-28 03:16:00,,0806.2,5.00,0.00,23.0,22.1,00.0,32.0,24.7,09.6,0000.0,0013.42,0003.88,0002.82
2021-12-28 03:17:00,,0806.2,5.00,0.00,23.0,22.1,00.0,32.0,24.7,09.5,0000.0,0013.38,0003.85,0002.81
2021-12-28 03:18:00,,0806.2,4.98,0.00,23.0,22.1,00.0,32.0,24.7,09.5,0000.0,0013.73,0003.84,0002.80
2021-12-28 03:19:00,,0806.2,5.02,0.00,22.9,22.1,00.0,32.0,24.7,09.5,0000.0,0013.05,0003.80,0002.76
2021-12-28 03:20:00,,0806.2,4.98,0.00,23.0,22.1,00.0,32.0,24.7,09.5,0000.0,0012.73,0003.76,0002.75
2021-12-28 03:21:00,,0806.2,5.01,0.00,23.0,22.1,00.0,32.0,24.7,09.5,0000.0,0011.67,0003.80,0002.75
2021-12-28 03:22:00,,0806.2,5.01,0.00,23.0,22.2,00.0,32.0,24.7,09.6,0000.0,0011.25,0003.78,0002.76
2021-12-28 03:23:00,,0806.2,4.99,0.00,22.9,22.2,00.0,32.0,24.7,09.7,0000.0,0011.30,0003.80,0002.78
2021-12-28 03:24:00,,0806.2,5.00,0.00,23.0,22.1,00.0,32.0,24.7,09.6,0000.0,0010.44,0003.77,0002.77
2021-12-28 03:25:00,,0806.2,5.01,0.00,22.9,22.1,00.0,32.0,24.7,09.6,0000.0,0011.04,0003.74,0002.70
2021-12-28 03:26:00,,0806.2,5.00,0.00,22.9,22.1,00.0,32.0,24.6,09.6,0000.0,0011.17,0003.68,0002.63
2021-12-28 03:27:00,,0806.2,5.01,0.00,22.9,22.1,00.0,31.9,24.6,09.6,0000.0,0011.47,0003.65,0002.59
2021-12-28 03:28:00,,0806.0,5.00,0.00,22.9,22.1,00.0,31.9,24.6,09.7,0000.0,0012.59,0003.75,0002.67
2021-12-28 03:29:00,,0806.0,5.01,0.00,22.9,22.0,00.0,31.9,24.6,09.7,0000.0,0012.54,0003.85,0002.73
2021-12-28 03:30:00,,0805.9,4.99,0.00,22.9,22.0,00.0,31.9,24.6,09.7,0000.0,0012.34,0003.87,0002.73
2021-12-28 03:31:00,,0805.9,5.00,0.00,22.8,22.0,00.0,31.9,24.6,09.7,0000.0,0011.90,0003.86,0002.69
2021-12-28 03:32:00,,0805.9,5.00,0.00,22.8,22.0,00.0,31.9,24.6,09.7,0000.0,0011.55,0003.81,0002.67
2021-12-28 03:33:00,,0805.9,5.00,0.00,22.8,22.0,00.0,31.9,24.6,09.7,0000.0,0011.48,0003.78,0002.65
2021-12-28 03:34:00,,0805.9,5.01,0.00,22.8,22.0,00.0,31.9,24.5,09.7,0000.0,0011.51,0003.77,0002.63
2021-12-28 03:35:00,,0805.9,4.99,0.00,22.8,22.0,00.0,31.9,24.5,09.7,0000.0,0011.71,0003.76,0002.62
2021-12-28 03:36:00,,0806.0,5.01,0.00,22.8,22.0,00.0,31.9,24.5,09.7,0000.0,0011.29,0003.76,0002.62
2021-12-28 03:37:00,,0806.1,5.01,0.00,22.8,22.0,00.0,31.8,24.5,09.7,0000.0,0011.58,0003.77,0002.63
2021-12-28 03:38:00,,0806.2,5.00,0.00,22.8,22.0,00.0,31.8,24.5,09.7,0000.0,0010.91,0003.81,0002.66
2021-12-28 03:39:00,,0806.2,4.99,0.00,22.8,22.0,00.0,31.8,24.4,09.7,0000.0,0009.88,0003.77,0002.64
2021-12-28 03:40:00,,0806.2,5.00,0.00,22.7,21.9,00.0,31.8,24.4,09.8,0000.0,0010.00,0003.72,0002.62
2021-12-28 03:41:00,,0806.2,4.98,0.00,22.7,21.9,00.0,31.8,24.3,09.8,0000.0,0010.26,0003.65,0002.63
2021-12-28 03:42:00,,0806.3,5.01,0.00,22.7,21.8,00.0,31.8,24.3,09.8,0000.0,0010.55,0003.69,0002.69
2021-12-28 03:43:00,,0806.3,5.01,0.00,22.7,21.8,00.0,31.8,24.3,09.7,0000.0,0011.00,0003.72,0002.70
2021-12-28 03:44:00,,0806.2,5.00,0.00,22.7,21.8,00.0,31.8,24.3,09.7,0000.0,0011.40,0003.77,0002.72
2021-12-28 03:45:00,,0806.3,4.98,0.00,22.7,21.8,00.0,31.7,24.4,09.7,0000.0,0012.02,0003.80,0002.73
2021-12-28 03:46:00,,0806.3,5.01,0.00,22.7,21.9,00.0,31.7,24.4,09.7,0000.0,0012.87,0003.82,0002.75
2021-12-28 03:47:00,,0806.2,4.99,0.00,22.7,21.9,00.0,31.7,24.4,09.7,0000.0,0012.47,0003.81,0002.77
2021-12-28 03:48:00,,0806.2,4.99,0.00,22.7,21.9,00.0,31.7,24.4,09.7,0000.0,0012.56,0003.86,0002.80
2021-12-28 03:49:00,,0806.3,5.02,0.00,22.7,21.9,00.0,31.7,24.4,09.7,0000.0,0013.06,0003.84,0002.81
2021-12-28 03:50:00,,0806.4,4.99,0.00,22.7,21.9,00.0,31.7,24.5,09.7,0000.0,0013.70,0003.83,0002.80
2021-12-28 03:51:00,,0806.3,5.00,0.00,22.7,21.9,00.0,31.7,24.5,09.7,0000.0,0014.07,0003.80,0002.77
2021-12-28 03:52:00,,0806.3,4.99,0.00,22.7,21.9,00.0,31.7,24.5,09.7,0000.0,0013.87,0003.80,0002.74
2021-12-28 03:53:00,,0806.2,5.01,0.00,22.7,21.9,00.0,31.7,24.5,09.6,0000.0,0014.76,0003.78,0002.70
2021-12-28 03:54:00,,0806.3,4.99,0.00,22.8,22.0,00.0,31.7,24.5,09.6,0000.0,0014.95,0003.76,0002.70
2021-12-28 03:55:00,,0806.3,5.01,0.00,22.8,22.0,00.0,31.7,24.5,09.6,0000.0,0015.26,0003.79,0002.72
2021-12-28 03:56:00,,0806.2,5.00,0.00,22.8,22.0,00.0,31.7,24.5,09.6,0000.0,0014.67,0003.75,0002.71
2021-12-28 03:57:00,,0806.2,5.00,0.00,22.8,22.0,00.0,31.7,24.5,09.6,0000.0,0013.80,0003.75,0002.69
2021-12-28 03:58:00,,0806.2,5.00,0.00,22.7,21.9,00.0,31.7,24.5,09.6,0000.0,0014.23,0003.75,0002.68
2021-12-28 03:59:00,,0806.3,5.02,0.00,22.8,21.9,00.0,31.7,24.5,09.6,0000.0,0014.25,0003.76,0002.67
